Mid Delta Regional Airport
KGLH : rendu visible

Aérodrome :











RETROUVEZ-NOUS SUR...

 
LOGIN :

S'inscrire | Disclaimer

   EN    FR    IT 

 









Légende :    VFR   VFR Marginal   IFR   IFR Intensif   IFR Très Intensif
Visi : 
Plafond : 
>= 8 km
>= 3000ft
5 à 8 km
1000 à 3000 ft
1500m à 5 km
500 à 1000 ft
800 à 1500m
200 à 500 ft
< 800m
< 200 ft
Symboles :   Orages  Brouillard  Fortes neiges  Fortes précipitations  Vent > 20 kt






- Altitude de l'aérodrome : 131 ft
- Code IATA : GLH


KGLH - Mid Delta Regional

DERNIER METAR :
  • 230653Z AUTO 18003KT 10SM CLR 09/07 A3015 RMK AO2 SLP217 T00890067 $

METARs EXPIRÉS :
  • 230553Z AUTO 17004KT 10SM CLR 07/06 A3014 RMK AO2 SLP213 T00720056 10161 20067 402110067 50001 $
  • 230453Z AUTO 00000KT 10SM CLR 09/07 A3014 RMK AO2 SLP214 T00890067 $

TAF KGLH
Valide du 23 à 06h jusqu'au 24 à 06h UTC


230520Z 2306/2406 18005KT P6SM SKC



MET'MAP, la Météo Aéronautique d'un coup d'oeil ! - Copyright ORBIFLY Décembre 2007 - Disclaimer

ORBIFLY MET'MAP TEAM :

Programmation & Développement : Alexandra Zaïnal
Conception & Développement : Baudouin d'Aumeries
Co-Programmation & Développement : Marc-Olivier Méhu
Soutien technique & logistique : Manuel Goepfert

Contact : metmap@orbifly.com




SOURCES & CREDITS :

   NOAA       Earth
Advisory